Home   Weather   Differdange   Past weeks

Flag for Luxembourg Past Weather in Differdange, Luxembourg — Yesterday and Last 2 Weeks

Now
43 °F

Broken clouds.


Feels Like: 36 °F
Forecast: 30 / 57 °F
Wind: 12 mph from Southwest

Location: Luxembourg Airport

Current Time: Apr 28, 2017 at 2:12:25 pm

Latest Report: Apr 28, 2017 at 1:20 pm


Visibility: N/A

Pressure: 29.98 "Hg

Humidity: 81%

Dew Point: 37 °F

Location of DifferdangeLocation

Past Weather in Differdange — Graph

°F

Differdange Temperature Yesterday

Maximum temperature yesterday: 52 °F (at 5:20 pm)
Minimum temperature yesterday: 34 °F (at 5:50 am)
Average temperature yesterday: 43 °F

High & Low Weather Summary for the Past Weeks

 TemperatureHumidityPressure
High61 °F (Apr 24, 3:50 pm)93% (Apr 17, 7:50 am)30.60 "Hg (Apr 17, 7:50 am)
Low30 °F (Apr 28, 5:50 am)26% (Apr 20, 6:50 pm)29.74 "Hg (Apr 25, 5:20 am)
Average45 °F61%30.13 "Hg
* Reported Apr 13 12:20 pm — Apr 28 12:50 pm, Differdange, Weather by CustomWeather, © 2017

Note: Actual official high and low records may vary slightly from our data, if they occured in-between our weather recording intervals... More about our weather records

Advertising

Differdange Weather History for the Previous 24 Hours

Scroll right to see more
 ConditionsComfort  
Time TempWeatherWind HumidityBarometerVisibility
12:50 pm
Fri, Apr 28
41 °FDrizzle. Broken clouds.12 mph81%29.98 "HgN/A
12:20 pm45 °FPartly sunny.15 mph71%29.98 "HgN/A
11:50 am45 °FPartly sunny.13 mph61%29.98 "HgN/A
11:20 am45 °FBroken clouds.12 mph57%29.98 "HgN/A
10:50 am45 °FPartly sunny.12 mph53%29.95 "HgN/A
10:20 am45 °FPartly sunny.9 mph53%29.95 "HgN/A
9:20 am43 °FPassing clouds.8 mph61%29.95 "HgN/A
8:50 am41 °FPassing clouds.6 mph70%29.95 "HgN/A
8:20 am39 °FPassing clouds.5 mph75%29.95 "HgN/A
7:50 am37 °FSunny.6 mph81%29.95 "Hg10 mi
7:20 am32 °FSunny.5 mph93%29.95 "Hg10 mi
6:50 am30 °FSunny.6 mph93%29.95 "Hg10 mi
6:20 am32 °FPassing clouds.6 mph93%29.95 "HgN/A
5:50 am30 °FClear.6 mph93%29.95 "Hg10 mi
5:20 am34 °FClear.7 mph87%29.95 "Hg10 mi
4:50 am32 °FClear.7 mph93%29.95 "Hg10 mi
4:20 am32 °FChilly.7 mph87%29.95 "HgN/A
3:50 am32 °FChilly.7 mph87%29.95 "HgN/A
3:20 am32 °FChilly.7 mph87%29.95 "HgN/A
2:50 am36 °FChilly.5 mph81%29.95 "HgN/A
2:20 am36 °FPassing clouds.7 mph81%29.95 "HgN/A
1:50 am36 °FClear.7 mph81%29.95 "Hg10 mi
1:20 am37 °FClear.5 mph75%29.98 "Hg10 mi
12:50 am37 °FClear.3 mph75%29.98 "Hg10 mi
12:20 am39 °FPassing clouds.8 mph70%29.98 "HgN/A
11:50 pm
Thu, Apr 27
39 °FClear.10 mph70%29.98 "Hg10 mi
11:20 pm39 °FClear.10 mph70%29.98 "Hg10 mi
10:50 pm41 °FClear.9 mph66%29.98 "Hg10 mi
10:20 pm41 °FPassing clouds.13 mph66%29.98 "HgN/A
9:50 pm41 °FClear.12 mph66%29.98 "Hg10 mi
9:20 pm43 °FClear.16 mph57%29.95 "Hg10 mi
8:50 pm46 °FPassing clouds.14 mph43%29.95 "HgN/A
8:20 pm48 °FPassing clouds.7 mph34%29.95 "HgN/A
7:50 pm50 °FPassing clouds.10 mph32%29.95 "HgN/A
7:20 pm50 °FPassing clouds.7 mph32%29.95 "HgN/A
6:50 pm48 °FScattered clouds.10 mph34%29.95 "HgN/A
6:20 pm50 °FPassing clouds.10 mph35%29.95 "HgN/A
5:50 pm52 °FPassing clouds.12 mph32%29.95 "HgN/A
5:20 pm52 °FOvercast.5 mph30%29.95 "HgN/A
4:50 pm50 °FPassing clouds.8 mph35%29.95 "HgN/A
4:20 pm50 °FPassing clouds.9 mph35%29.95 "HgN/A
3:50 pm50 °FPassing clouds.6 mph35%29.95 "HgN/A
3:20 pm48 °FPassing clouds.7 mph37%29.98 "HgN/A
2:50 pm48 °FPassing clouds.6 mph37%29.98 "HgN/A
2:20 pm48 °FSunny.8 mph40%29.98 "Hg10 mi
Weather by CustomWeather, © 2017

See weather overviewHow to use our weather pages